This is the latest recevied weather packets stored in our database for station/object XE2KK-10. If no packets are shown the sender has not sent any weather packets the latest 10 day(s).
| Time | Temp. | Humidity | Pressure | Rain* | Wind** | Luminosity | Snow |
|---|---|---|---|---|---|---|---|
| 1778025553 | 38.33° C | 23% | 1003.1 hPa | 0 mm | - | 94 W/m² | - |
| 1778025253 | 38.89° C | 22% | 1003.2 hPa | 0 mm | - | 98 W/m² | - |
| 1778024952 | 40° C | 18% | 1003.2 hPa | 0 mm | - | 105 W/m² | - |
| 1778024652 | 40° C | 15% | 1003.1 hPa | 0 mm | - | 97 W/m² | - |
| 1778024353 | 40° C | 15% | 1003.1 hPa | 0 mm | - | 150 W/m² | - |
| 1778024053 | 39.44° C | 15% | 1003.2 hPa | 0 mm | - | 151 W/m² | - |
| 1778023753 | 40° C | 16% | 1003 hPa | 0 mm | - | 133 W/m² | - |
| 1778023453 | 40° C | 15% | 1003.1 hPa | 0 mm | - | 113 W/m² | - |
| 1778023152 | 40° C | 15% | 1003.2 hPa | 0 mm | - | 165 W/m² | - |
| 1778022852 | 40° C | 15% | 1003 hPa | 0 mm | - | 223 W/m² | - |
| 1778022553 | 40° C | 16% | 1003.2 hPa | 0 mm | - | 220 W/m² | - |
| 1778022253 | 40.56° C | 15% | 1003.3 hPa | 0 mm | - | 378 W/m² | - |
| 1778021953 | 40° C | 15% | 1003.2 hPa | 0 mm | - | 314 W/m² | - |
| 1778021653 | 40° C | 16% | 1003.1 hPa | 0 mm | - | 269 W/m² | - |
| 1778021352 | 40° C | 16% | 1003.4 hPa | 0 mm | - | 280 W/m² | - |
| 1778021052 | 40° C | 16% | 1003.3 hPa | 0 mm | - | 246 W/m² | - |
| 1778020753 | 40° C | 16% | 1003.4 hPa | 0 mm | - | 341 W/m² | - |
| 1778020453 | 40° C | 17% | 1003.5 hPa | 0 mm | - | 294 W/m² | - |
| 1778020153 | 40° C | 17% | 1003.5 hPa | 0 mm | - | 309 W/m² | - |
| 1778019853 | 40.56° C | 17% | 1003.4 hPa | 0 mm | - | 316 W/m² | - |
| 1778019552 | 41.11° C | 16% | 1003.7 hPa | 0 mm | - | 320 W/m² | - |
| 1778019252 | 40.56° C | 16% | 1003.7 hPa | 0 mm | - | 334 W/m² | - |
| 1778018953 | 40.56° C | 16% | 1003.7 hPa | 0 mm | - | 433 W/m² | - |
| 1778018653 | 40° C | 17% | 1003.8 hPa | 0 mm | - | 381 W/m² | - |
| 1778018353 | 40.56° C | 17% | 1003.8 hPa | 0 mm | - | 322 W/m² | - |
* Rain latest hour (hover to see other rain measurements)
** Current wind speed in m/s (hover to see current wind gust speed)